Date,TemperatureHighF,TemperatureAvgF,TemperatureLowF,DewpointHighF,DewpointAvgF,DewpointLowF,HumidityHigh,HumidityAvg,HumidityLow,PressureMaxIn,PressureMinIn,WindSpeedMaxMPH,WindSpeedAvgMPH,GustSpeedMaxMPH,PrecipitationSumIn
2013-5-1,72.0,61.6,58.0,62.0,52.9,-99.9,99,81,59,0.00,40.00,6,4,11,0.01
2013-5-2,73.0,66.8,63.0,63.0,60.7,56.0,92,82,68,0.00,40.00,7,5,16,0.00
2013-5-3,68.0,62.0,58.0,63.0,56.1,44.0,97,82,52,0.00,40.00,9,5,22,0.06
2013-5-4,65.0,60.3,55.0,59.0,53.8,44.0,94,80,54,0.00,40.00,7,5,16,0.03
2013-5-5,69.0,63.7,60.0,65.0,61.8,58.0,98,93,87,0.00,40.00,6,4,17,0.54
2013-5-6,75.0,65.8,53.0,65.0,56.2,49.0,100,76,44,0.00,40.00,4,2,11,0.21
2013-5-7,69.0,55.9,51.0,61.0,48.2,-99.9,99,85,62,0.00,40.00,4,1,10,0.26
2013-5-8,80.0,63.8,47.0,61.0,55.5,47.0,99,78,42,0.00,40.00,5,2,11,0.24
2013-5-9,86.0,70.8,57.0,64.0,59.5,56.0,99,72,38,0.00,40.00,4,2,9,0.00
2013-5-10,89.0,73.7,58.0,66.0,60.8,58.0,99,69,39,0.00,40.00,5,2,14,0.00
2013-5-11,85.0,72.7,64.0,70.0,62.9,-99.9,98,77,48,0.00,40.00,4,2,10,0.00
2013-5-12,83.0,72.8,59.0,68.0,60.3,50.0,95,68,39,0.00,40.00,5,2,11,0.00
2013-5-13,74.0,61.2,50.0,53.0,43.8,37.0,85,58,27,0.00,40.00,6,2,15,0.00
2013-5-14,79.0,60.7,45.0,52.0,44.4,38.0,95,62,25,0.00,40.00,5,2,11,0.00
2013-5-15,90.0,68.0,50.0,60.0,55.1,49.0,98,69,35,0.00,40.00,4,2,12,0.00
2013-5-16,86.0,65.4,63.0,67.0,38.1,-99.9,90,70,44,0.00,40.00,4,2,9,0.00
2013-5-17,91.0,72.3,60.0,67.0,56.5,-99.9,99,72,37,0.00,40.00,4,2,10,0.00
2013-5-18,86.0,72.8,61.0,70.0,64.2,60.0,98,77,45,0.00,40.00,4,2,11,0.00
2013-5-19,82.0,73.5,67.0,73.0,68.3,66.0,97,84,60,0.00,40.00,4,2,12,0.15
2013-5-20,78.0,70.3,65.0,75.0,68.9,65.0,99,95,82,0.00,40.00,3,1,13,0.52
2013-5-21,74.0,68.7,66.0,72.0,68.1,65.0,100,98,87,0.00,40.00,2,1,10,1.42
2013-5-22,86.0,73.0,62.0,75.0,66.8,62.0,100,83,50,0.00,40.00,4,2,12,0.05
2013-5-23,87.0,74.8,63.0,74.0,68.1,63.0,100,82,53,0.00,40.00,3,1,11,0.00
2013-5-24,83.0,72.4,56.0,67.0,57.7,39.0,99,64,26,0.00,40.00,6,3,14,0.00
2013-5-25,78.0,62.9,50.0,53.0,38.1,-99.9,93,54,24,0.00,40.00,5,2,14,0.00
2013-5-26,85.0,67.1,50.0,61.0,55.5,49.0,99,72,38,0.00,40.00,4,2,11,0.00
2013-5-27,87.0,70.2,55.0,66.0,60.0,54.0,99,74,43,0.00,40.00,5,2,10,0.00
2013-5-28,86.0,72.0,58.0,69.0,62.9,58.0,99,77,44,0.00,40.00,4,2,12,0.00
2013-5-29,86.0,72.0,59.0,70.0,63.1,58.0,99,77,44,0.00,40.00,4,2,12,0.00
2013-5-30,88.0,73.5,59.0,70.0,65.3,58.0,99,79,51,0.00,40.00,4,2,11,0.00
2013-5-31,87.0,75.2,64.0,74.0,67.8,64.0,99,81,51,0.00,40.00,4,2,13,0.00